This demonstration page uses our WeatherBlox Daily Observations layout. Learn more.

Left ArrowRight Arrow

Hourly Observations for July 23, 2016

Temp ( °F °C ) Dew Point ( °F °C ) Humidity (%) Winds ( mph kmh ) Pressure ( in mb ) Visibility ( mi km ) Precip ( " mm )
12:58 am 00:58 Clear 82 27.6 80 26.7 95 95 ESE 7 11 29.88 1012 10 16 0.00 0.00
1:58 am 01:58 Clear 81 27.4 77 24.9 86 86 ESE 7 11 29.88 1012 10 16 0.00 0.00
2:58 am 02:58 Clear 81 27.4 75 23.9 81 81 SSE 9 15 29.88 1012 10 16 0.00 0.00
3:58 am 03:58 Clear 81 27.2 75 23.7 81 81 SE 9 15 29.85 1011 10 16 0.00 0.03
4:58 am 04:58 Partly Cloudy 80 26.7 74 23.6 83 83 ESE 8 13 29.85 1011 10 16 0.00 0.03
5:58 am 05:58 Cloudy 82 27.9 70 20.9 66 66 S 15 24 29.85 1011 10 16 0.00 0.00
6:58 am 06:58 Sunny 81 27 69 20.7 68 68 SSE 7 11 29.85 1011 10 16 0.00 0.00
7:03 am 07:03 Mostly Cloudy with Light Rain 81 27 70 21 70 70 SSE 7 11 29.83 1010 10 16 0.00 0.00
7:19 am 07:19 Mostly Cloudy 79 26 70 21 74 74 VRB 6 9 29.80 1009 10 16 0.00 0.00
7:58 am 07:58 Mostly Cloudy 80 26.7 70 21.2 72 72 S 10 17 29.83 1010 10 16 0.01 0.25
8:58 am 08:58 Cloudy 82 27.7 71 21.4 69 69 VRB 7 11 29.82 1010 10 16 0.00 0.00
9:44 am 09:44 Mostly Cloudy with Light Rain 82 28 72 22 70 70 ESE 7 11 29.77 1008 10 16 0.00 0.00
9:58 am 09:58 Mostly Cloudy with Light Rain 80 26.9 73 22.8 78 78 SE 7 11 29.82 1010 10 16 0.00 0.03
10:00 am 10:00 Mostly Cloudy 81 27 73 23 79 79 SE 7 11 29.77 1008 10 16 0.00 0.00
10:58 am 10:58 Mostly Cloudy 81 27.1 74 23.3 80 80 SE 7 11 29.81 1010 10 16 0.00 0.03
11:58 am 11:58 Partly Cloudy 84 29 73 22.9 70 70 SSE 6 9 29.82 1010 10 16 0.00 0.00
12:58 pm 12:58 Mostly Sunny 86 30.2 74 23.1 66 66 SSW 10 17 29.81 1009 10 16 0.00 0.00
1:58 pm 13:58 Partly Cloudy 89 31.5 75 23.9 64 64 SSE 9 15 29.81 1009 10 16 0.00 0.00
2:58 pm 14:58 Sunny 91 32.5 76 24.2 62 62 S 9 15 29.81 1009 10 16 0.00 0.00
3:58 pm 15:58 Sunny 91 32.8 76 24.6 62 62 SSE 12 19 29.78 1008 10 16 0.00 0.00
4:58 pm 16:58 Sunny 92 33.1 76 24.7 61 61 S 10 17 29.77 1008 10 16 0.00 0.00
5:58 pm 17:58 Sunny 92 33.2 76 24.6 61 61 S 9 15 29.75 1008 10 16 0.00 0.00
6:58 pm 18:58 Sunny 91 32.5 76 24.3 62 62 SSE 12 19 29.75 1007 10 16 0.00 0.00
7:58 pm 19:58 Sunny 88 31 78 25.3 72 72 SSE 10 17 29.75 1007 10 16 0.00 0.00
8:58 pm 20:58 Clear 84 29 78 25.3 80 80 SE 7 11 29.75 1007 10 16 0.00 0.00
9:58 pm 21:58 Mostly Cloudy 83 28.4 77 25.1 82 82 SE 8 13 29.77 1008 9 14 0.00 0.00
10:58 pm 22:58 Mostly Cloudy 83 28.5 76 24.7 80 80 SSE 13 20 29.78 1009 10 16 0.00 0.00
11:58 pm 23:58 Partly Cloudy 84 28.7 75 23.9 75 75 S 6 9 29.80 1009 10 16 0.00 0.00

Powered by AerisWeather